Regional Weather Roundup
Issued by NWS

Home | Current Version | Previous Version | Text Only | Print | Product List | Glossary On
Versions: 1 2 3 4 5 6 7 8 9 10 11 12 13 14 15 16 17 18 19 20 21 22 23 24 25 26 27 28 29 30 31 32 33 34 35 36 37 38 39 40 41 42 43 44 45 46 47 48 49 50
000
ASUS46 KLOX 291012
RWRCA

SOUTHERN CALIFORNIA WEATHER ROUNDUP
NATIONAL WEATHER SERVICE OXNARD CALIFORNIA
200 AM PST MON DEC 29 2014

NOTE: "FAIR" INDICATES FEW OR NO CLOUDS BELOW 12,000 FEET WITH NO
SIGNIFICANT WEATHER AND/OR OBSTRUCTIONS TO VISIBILITY.

  -  STATIONS PRECEEDED BY AN ASTERISK (*) ARE NOT NWS OR FAA
     STATIONS AND ARE NOT SUBJECT TO NWS AND FAA QUALITY CONTROL.

CAZ041-042-087-291100-
LA AND ORANGE COUNTY COASTAL AREAS


CITY           SKY/WX    TMP DP  RH WIND       PRES   REMARKS
L.A. DOWNTOWN  CLEAR     45  35  68 CALM      30.15S
L.A. AIRPORT   CLEAR     46  36  68 E3        30.15S
LONG BEACH     CLEAR     45  39  79 CALM      30.15S

CITY           SKY/WX    TMP DP  RH WIND       PRES   REMARKS
AVALON           N/A     45 N/A N/A S3          N/A
FULLERTON      CLEAR     45  38  76 E5        30.14S
*GETTY CENTER    N/A    N/A N/A N/A VRB7        N/A
HAWTHORNE      CLEAR     48  35  60 CALM      30.15F
*LEO CARRILLO    N/A     47  32  56 N10         N/A
*LOS ALAMITOS  FAIR      45  37  73 NE3       30.15S
*REDONDO BEACH   N/A     42  37  81 CALM      30.13F
SANTA ANA      CLEAR     49  36  61 N3        30.14F
STA MONICA APT CLEAR     45  37  73 E5        30.15S
*UCLA            N/A     46  32  57 N3        30.11F

$$

CAZ547-548-048-291100-
LA COUNTY VALLEYS AND INLAND EMPIRE


CITY           SKY/WX    TMP DP  RH WIND       PRES   REMARKS
BURBANK        CLEAR     40  30  67 CALM      30.13F
VAN NUYS       CLEAR     38  33  82 CALM      30.14F

CITY           SKY/WX    TMP DP  RH WIND       PRES   REMARKS
CORONA AIRPORT SUNNY     29  28  96 CALM      30.17S
*CHATSWORTH      N/A     39  33  77 CALM      30.16S
CHINO          CLEAR     37  32  82 CALM      30.16F
MARCH AFB      CLEAR     32  29  88 CALM      30.14S
*NORTHRIDGE      N/A     37  30  75 CALM        N/A
ONTARIO        CLEAR     41  28  60 NE5       30.14F
*PASADENA        N/A     43  32  65 CALM        N/A
RIVERSIDE      CLEAR     40  30  67 E6        30.15F
SAN BERNARDINO NOT AVBL
*SAN RAFAEL HI   N/A     46  25  43 N3          N/A
*SAUGUS          N/A     39  29  66 E3          N/A
*WHITEMAN AP   NOT AVBL
*WHITTIER HILL   N/A     47  37  69 NE7         N/A

$$

CAZ054-055-291100-
LA AND SAN BERNARDINO COUNTY MOUNTAINS


CITY           SKY/WX    TMP DP  RH WIND       PRES   REMARKS
*BIG BEAR AIRP SUNNY     32   7  34 SW8       30.14R WCI  25
MT WILSON NWS    N/A    N/A N/A N/A MISG        N/A
SANDBERG       CLEAR     41  22  46 NW29      30.13F WCI  30

$$

CAZ028-029-059-060-099-291100-
ANTELOPE VALLEY AND SURROUNDING AREAS


CITY           SKY/WX    TMP DP  RH WIND       PRES   REMARKS
LANCASTER      CLEAR     46  25  43 W18       30.10R
PALMDALE       CLEAR     47  25  42 S8        30.11S

CITY           SKY/WX    TMP DP  RH WIND       PRES   REMARKS
29 PALMS       CLEAR     31  11  43 NW7       30.17F WCI  24
BARSTOW/DAGGET CLEAR     28  14  55 CALM      30.11R
BISHOP         PTCLDY    12   3  67 N6        30.08S WCI   3
CHINA LAKE     PTCLDY    25  18  74 CALM      30.09S
EDWARDS AFB    PTCLDY    41  22  47 SW8       30.07S
MOJAVE         FAIR      46  14  27 W18G26    30.06R
NEEDLES        CLEAR     35  14  42 W7        30.13S WCI  29
VICTORVILLE      N/A     41  21  45 CALM      30.09S

$$

CAZ039-040-291100-
VENTURA AND SANTA BARBARA COUNTY COAST


CITY           SKY/WX    TMP DP  RH WIND       PRES   REMARKS
CAMARILLO      CLEAR     40  35  83 W3        30.14F
OXNARD AIRPORT CLEAR     46  34  62 NE9       30.15S
*POINT MUGU    CLEAR     45  38  76 N8        30.16S
SBA APT/GOLETA CLEAR     41  37  86 CALM      30.14S
*SANTA BARBARA   N/A     45  37  73 CALM      30.23R
*VENTURA         N/A     47  32  56 N3        30.17F

$$

CAZ044-045-291100-
VENTURA COUNTY VALLEYS


CITY           SKY/WX    TMP DP  RH WIND       PRES   REMARKS
*SIMI VALLEY     N/A     38  32  81 CALM      30.13F
*OJAI            N/A     31  28  90 CALM      30.13S
*FILLMORE        N/A     35  30  82 CALM      30.06S

$$

CAZ053-291100-
VENTURA COUNTY MOUNTAINS


CITY           SKY/WX    TMP DP  RH WIND       PRES   REMARKS
*LOCKWOOD VLY    N/A     27 -99   0 MISG        N/A
*ROSE VALLEY     N/A     27  27 100 MISG        N/A

$$

CAZ034-035-036-291100-
CENTRAL COAST AND SANTA YNEZ VALLEY


CITY           SKY/WX    TMP DP  RH WIND       PRES   REMARKS
SAN LUIS OBISP CLEAR     39  33  79 SE5       30.19S
SANTA MARIA    CLEAR     38  33  82 SE5       30.19S WCI  34

CITY           SKY/WX    TMP DP  RH WIND       PRES   REMARKS
*CAL POLY SLO    N/A     54  32  43 NE8         N/A
*LOMPOC        CLEAR     36  28  75 E6        30.18S WCI  31
*PISMO BEACH     N/A     42  34  73 NE3       30.19S
*SANTA YNEZ    FAIR      36  32  87 CALM      30.18R

$$

CAZ037-038-051-291100-
SAN LUIS OBISPO COUNTY INTERIOR AND CUYAMA VALLEY


CITY           SKY/WX    TMP DP  RH WIND       PRES   REMARKS
*CUYAMA          N/A     32  24  71 CALM      30.22S
PASO ROBLES    CLEAR     34  30  85 CALM      30.22S FOG

$$

CAZ032-033-061-291100-
SOUTHERN DESERTS


CITY           SKY/WX    TMP DP  RH WIND       PRES   REMARKS
BLYTHE         CLEAR     32  19  58 N6        30.14R WCI  26
IMPERIAL       CLEAR     37  17  44 CALM      30.12S
PALM SPRINGS   CLEAR     41  21  44 NW5       30.13S
THERMAL        CLEAR     28  18  66 N3        30.12S

$$

ELSEWHERE ACROSS THE WESTERN UNITED STATES AND MEXICO


CITY           SKY/WX    TMP DP  RH WIND       PRES   REMARKS
DENVER, CO     MOCLDY    12   8  84 S9        29.98R WCI   0
GRAND CANYON,  CLEAR      7   4  87 NE5       30.05F WCI  -2
HONOLULU, HI   PTCLDY    66  57  72 NW6       29.94S
KAHULUI, MAUI  MOCLDY    68  57  68 NE5       29.94F
LAKE TAHOE, CA PTCLDY    19   8  62 S5        30.14R WCI  12
LAS VEGAS, NV  CLEAR     33  14  45 SW6       30.07R WCI  28
MAMMOTH LAKES, FAIR      37 -18   8 W17G28    30.09S WCI  28
MEXICO CITY, M CLEAR     52  45  76 CALM      30.31S
PHOENIX, AZ    CLEAR     40  25  55 E6        30.11S
PORTLAND, OR   CLOUDY    40  38  93 CALM      30.17S
RENO, NV       CLEAR     32  16  51 CALM      30.12S
SALT LAKE CITY CLOUDY    27  25  92 S7        30.01S WCI  19
SAN DIEGO, CA  PTCLDY    50  33  52 CALM      30.17S
SAN FRANCISCO, PTCLDY    49  47  93 W9        30.22S
SAN JOSE, CA   CLOUDY    46  41  82 CALM      30.23S
SEATTLE, WA    MOCLDY    37  35  92 N7        30.19R WCI  32
TIJUANA, MEX   CLEAR     45  32  61 SE6       30.17

$$

STATION/POSITION TIME  TEMP    WIND        PRES    VSBY  WAVE
                       AIR SEA DIR/SP/G                  HT/PER
                 (UTC) (F)     (DEG/KT/KT) (MB)    (MI)  (FT/S)
POINT ARGUELLO B NOT AVBL
WEST SANTA BARBA 1000   59 62  330/ 19/ 23 1020.2F         7/14
POINT CONCEPTION NOT AVBL
EAST SANTA BARBA NOT AVBL
SANTA MONICA BAY 1000   57 62   50/  6/  8 1020.8F         2/14



USA.gov is the U.S. government's official web portal to all federal, state and local government web resources and services.